M I D A S
Marine Information and Data Acquisition System
Tripno 1188 of the Zeeleeuw from 2006-11-23 08:00:51 to 2006-11-23 12:56:23
Back to CruiseResearch ActivitiesStationsMapUnderway DataData graphs

EquipmentUnitsComments
TimeDGPSUTC
LatitudeDGPSDM.mWGS84
LongitudeDGPSDM.mWGS84
SpeedMeteo Stationm/sRelative wind speed
DirectionMeteo StationdegRelative wind direction
TemperatureMeteo Stationdeg CelciusAir temperature
PressureMeteo StationPaAtmospheric pressure
HumidityMeteo Station%Relative humidity
Missing or incorrect values are displayed as -999
Metereological data collected by the RV Zeeleeuw from 2006-11-23 08:01:19 to 2006-11-23 13:12:53
Time Latitude Longitude Speed Direction Temperature Pressure Humidity
2006-11-23 08:02 51°13.615 2°56.024 4.1 28 12.9 98420 99
2006-11-23 08:03 51°13.645 2°55.905 3.1 58 12.9 98420 99
2006-11-23 08:04 51°13.69 2°55.8 6.7 16 12.9 98420 98
2006-11-23 08:05 51°13.723 2°55.728 3.7 24 12.9 98420 98
2006-11-23 08:06 51°13.734 2°55.744 4.5 50 13 98420 98
2006-11-23 08:07 51°13.723 2°55.725 1.9 53 13 98410 99
2006-11-23 08:08 51°13.779 2°55.677 1.1 312 13.1 98410 98
2006-11-23 08:09 51°13.881 2°55.597 0.6 325 13.1 98420 98
2006-11-23 08:10 51°13.988 2°55.519 4.3 301 13.1 98420 98
2006-11-23 08:11 51°14.09 2°55.446 1.3 308 13.1 98420 98
2006-11-23 08:12 51°14.201 2°55.35 4.7 307 13.1 98420 98
2006-11-23 08:13 51°14.316 2°55.169 6.9 309 13.1 98420 98
2006-11-23 08:14 51°14.453 2°55.003 6.1 310 13.1 98420 98
2006-11-23 08:15 51°14.63 2°54.855 8.4 310 13.1 98410 98
2006-11-23 08:16 51°14.799 2°54.686 8.8 309 13 98410 98
2006-11-23 08:17 51°14.978 2°54.514 8.3 306 13 98420 98
2006-11-23 08:18 51°15.162 2°54.327 9.3 304 12.9 98420 98
2006-11-23 08:19 51°15.351 2°54.163 10.4 305 12.9 98430 98
2006-11-23 08:20 51°15.54 2°53.968 10.6 305 12.9 98410 98
2006-11-23 08:21 51°15.732 2°53.78 8.5 311 12.9 98420 98
2006-11-23 08:22 51°15.928 2°53.584 10.1 304 12.8 98410 98
2006-11-23 08:23 51°16.115 2°53.394 9.7 304 12.8 98410 98
2006-11-23 08:24 51°16.306 2°53.203 11 306 12.9 98400 98
2006-11-23 08:25 51°16.501 2°53.012 10.8 305 12.9 98400 98
2006-11-23 08:26 51°16.692 2°52.839 11.9 304 12.9 98400 98
2006-11-23 08:27 51°16.884 2°52.668 9.4 310 12.9 98400 98
2006-11-23 08:28 51°17.082 2°52.53 5.3 308 12.9 98390 98
2006-11-23 08:29 51°17.297 2°52.494 4.8 50 13 98410 98
2006-11-23 08:30 51°17.512 2°52.446 5.2 312 13 98410 98
2006-11-23 08:31 51°17.728 2°52.43 6.9 304 13 98410 98
2006-11-23 08:32 51°17.942 2°52.453 7.6 58 13 98410 98
2006-11-23 08:33 51°18.142 2°52.565 4.7 39 13.1 98410 98
2006-11-23 08:34 51°18.294 2°52.796 5.1 58 13.1 98410 98
2006-11-23 08:35 51°18.456 2°53.021 5.4 53 13.1 98410 98
2006-11-23 08:36 51°18.625 2°53.242 5 37 13.1 98410 97
2006-11-23 08:37 51°18.786 2°53.45 5 44 13.1 98400 97
2006-11-23 08:38 51°18.962 2°53.652 4 58 13.1 98400 97
2006-11-23 08:39 51°19.131 2°53.851 4.6 37 13.1 98400 97
2006-11-23 08:40 51°19.306 2°54.05 4.2 56 13.1 98410 97
2006-11-23 08:41 51°19.474 2°54.277 5.2 42 13.1 98400 97
2006-11-23 08:42 51°19.638 2°54.497 4.5 45 13.1 98410 97
2006-11-23 08:43 51°19.798 2°54.718 3.1 37 13.1 98410 97
2006-11-23 08:44 51°19.969 2°54.929 2.8 57 13.1 98400 97
2006-11-23 08:45 51°20.129 2°55.142 3.5 52 13.1 98400 97
2006-11-23 08:46 51°20.293 2°55.361 3.5 36 13.1 98410 97
2006-11-23 08:47 51°20.457 2°55.582 4.7 39 13.1 98400 97
2006-11-23 08:48 51°20.618 2°55.81 5.1 36 13.1 98410 97
2006-11-23 08:49 51°20.776 2°56.036 4.2 37 13.1 98410 97
2006-11-23 08:50 51°20.933 2°56.27 4.8 37 13 98410 97
2006-11-23 08:51 51°21.084 2°56.505 5.1 30 13.1 98400 97
2006-11-23 08:52 51°21.226 2°56.758 5.2 26 13 98400 97
2006-11-23 08:53 51°21.341 2°57.042 6 23 13 98400 97
2006-11-23 08:54 51°21.455 2°57.332 6.5 25 13 98400 97
2006-11-23 08:55 51°21.561 2°57.627 6.4 21 12.9 98390 97
2006-11-23 08:56 51°21.658 2°57.928 5.5 30 12.9 98400 97
2006-11-23 08:57 51°21.757 2°58.167 6.3 35 12.9 98400 97
2006-11-23 08:58 51°21.798 2°58.246 9.3 53 12.8 98400 97
2006-11-23 08:59 51°21.862 2°58.195 13.3 308 12.9 98400 98
2006-11-23 09:00 51°21.845 2°58.079 10 307 12.9 98360 97
2006-11-23 09:01 51°21.819 2°58.001 11.1 308 12.8 98370 97
2006-11-23 09:02 51°21.771 2°57.954 12.5 341 12.9 98370 98
2006-11-23 09:03 51°21.711 2°57.975 10.5 7 12.9 98370 98
2006-11-23 09:04 51°21.728 2°58.08 7.6 39 12.8 98400 98
2006-11-23 09:05 51°21.745 2°58.136 9.8 29 12.8 98390 98
2006-11-23 09:06 51°21.744 2°58.139 9.7 16 12.8 98390 98
2006-11-23 09:07 51°21.74 2°58.142 11 16 12.7 98390 98
2006-11-23 09:08 51°21.732 2°58.145 9.3 10 12.7 98370 98
2006-11-23 09:09 51°21.726 2°58.147 9.7 9 12.7 98370 98
2006-11-23 09:10 51°21.722 2°58.147 10.9 9 12.7 98380 98
2006-11-23 09:11 51°21.719 2°58.146 7.4 5 12.7 98380 99
2006-11-23 09:12 51°21.716 2°58.145 9.8 7 12.6 98380 99
2006-11-23 09:13 51°21.715 2°58.142 12.5 10 12.7 98380 99
2006-11-23 09:14 51°21.713 2°58.14 12 10 12.7 98370 99
2006-11-23 09:15 51°21.711 2°58.138 9.6 12 12.7 98380 99
2006-11-23 09:16 51°21.709 2°58.135 10.2 13 12.7 98390 99
2006-11-23 09:17 51°21.707 2°58.133 11.2 9 12.7 98380 99
2006-11-23 09:18 51°21.705 2°58.132 11.4 11 12.7 98380 99
2006-11-23 09:19 51°21.703 2°58.129 8.6 11 12.6 98380 99
2006-11-23 09:20 51°21.702 2°58.126 10.6 10 12.6 98390 99
2006-11-23 09:21 51°21.7 2°58.122 11.1 8 12.6 98380 99
2006-11-23 09:22 51°21.699 2°58.119 11.9 9 12.6 98390 99
2006-11-23 09:23 51°21.698 2°58.116 12.4 11 12.6 98390 99
2006-11-23 09:24 51°21.696 2°58.114 10.8 14 12.6 98390 100
2006-11-23 09:25 51°21.694 2°58.113 11.8 10 12.6 98400 100
2006-11-23 09:26 51°21.692 2°58.112 10.6 12 12.6 98390 100
2006-11-23 09:27 51°21.686 2°58.12 11 15 12.6 98400 100
2006-11-23 09:28 51°21.674 2°58.17 11.6 35 12.5 98390 100
2006-11-23 09:29 51°21.68 2°58.198 10.6 31 12.6 98400 100
2006-11-23 09:30 51°21.679 2°58.202 11.9 21 12.6 98390 100
2006-11-23 09:31 51°21.675 2°58.205 12.5 16 12.6 98390 100
2006-11-23 09:32 51°21.672 2°58.207 12.8 15 12.6 98380 100
2006-11-23 09:33 51°21.669 2°58.207 12 12 12.6 98410 100
2006-11-23 09:34 51°21.664 2°58.206 10.2 12 12.6 98400 100
2006-11-23 09:35 51°21.658 2°58.206 11.7 11 12.5 98420 100
2006-11-23 09:36 51°21.653 2°58.206 9.9 10 12.5 98420 100
2006-11-23 09:37 51°21.647 2°58.207 9.6 12 12.5 98420 100
2006-11-23 09:38 51°21.642 2°58.208 9.2 9 12.5 98430 100
2006-11-23 09:39 51°21.637 2°58.211 11.8 8 12.5 98420 100
2006-11-23 09:40 51°21.633 2°58.215 11.3 13 12.5 98420 100
2006-11-23 09:41 51°21.629 2°58.22 13.5 15 12.5 98420 100
2006-11-23 09:42 51°21.623 2°58.229 13.6 16 12.5 98420 100
2006-11-23 09:43 51°21.581 2°58.249 15 350 12.5 98380 100
2006-11-23 09:44 51°21.52 2°58.181 16.9 307 12.6 98420 100
2006-11-23 09:45 51°21.556 2°58.083 9.5 265 12.7 98400 100
2006-11-23 09:46 51°21.649 2°58.094 10.3 36 12.8 98460 100
2006-11-23 09:47 51°21.697 2°58.154 13.6 43 12.9 98440 100
2006-11-23 09:48 51°21.697 2°58.161 13.2 25 12.9 98400 100
2006-11-23 09:49 51°21.694 2°58.164 12.3 23 12.9 98410 99
2006-11-23 09:50 51°21.691 2°58.168 11.5 19 12.9 98410 99
2006-11-23 09:51 51°21.69 2°58.174 12.2 19 12.9 98410 99
2006-11-23 09:52 51°21.686 2°58.182 12.8 18 12.9 98420 98
2006-11-23 09:53 51°21.684 2°58.19 13.1 20 12.9 98430 98
2006-11-23 09:54 51°21.68 2°58.197 12.7 16 12.9 98420 97
2006-11-23 09:55 51°21.675 2°58.206 13.6 11 13 98430 97
2006-11-23 09:56 51°21.669 2°58.215 11.8 16 13 98440 96
2006-11-23 09:57 51°21.665 2°58.224 10.8 19 13 98440 96
2006-11-23 09:58 51°21.661 2°58.233 13.4 17 13 98440 96
2006-11-23 09:59 51°21.659 2°58.242 13.3 17 13 98440 96
2006-11-23 10:00 51°21.656 2°58.254 14 18 13 98430 95
2006-11-23 10:01 51°21.655 2°58.263 13.4 19 13.1 98440 95
2006-11-23 10:02 51°21.653 2°58.273 12.2 17 13.1 98430 94
2006-11-23 10:03 51°21.652 2°58.284 15.2 17 13 98420 94
2006-11-23 10:04 51°21.627 2°58.309 14.3 4 13.1 98430 93
2006-11-23 10:05 51°21.558 2°58.304 16.4 342 13.1 98430 93
2006-11-23 10:06 51°21.504 2°58.218 16.3 308 13.2 98430 92
2006-11-23 10:07 51°21.494 2°58.073 18.8 305 13.2 98410 92
2006-11-23 10:08 51°21.488 2°57.877 19.1 306 13.2 98400 91
2006-11-23 10:09 51°21.503 2°57.681 20 308 13.3 98400 90
2006-11-23 10:10 51°21.522 2°57.489 16.2 307 13.3 98410 89
2006-11-23 10:11 51°21.528 2°57.37 15.4 308 13.3 98410 89
2006-11-23 10:12 51°21.528 2°57.342 12.8 308 13.3 98430 89
2006-11-23 10:13 51°21.53 2°57.322 15.2 305 13.3 98440 88
2006-11-23 10:14 51°21.533 2°57.326 14.4 308 13.3 98440 88
2006-11-23 10:15 51°21.532 2°57.342 16.8 306 13.2 98460 88
2006-11-23 10:16 51°21.526 2°57.362 10.8 310 13.2 98490 88
2006-11-23 10:17 51°21.519 2°57.375 10.3 312 13.2 98510 88
2006-11-23 10:18 51°21.513 2°57.385 13.5 50 13.1 98490 88
2006-11-23 10:19 51°21.511 2°57.399 9.2 302 13.1 98500 89
2006-11-23 10:20 51°21.509 2°57.41 8.7 310 13.1 98520 89
2006-11-23 10:21 51°21.508 2°57.42 15.1 304 13.1 98500 89
2006-11-23 10:22 51°21.506 2°57.435 7.9 308 13.1 98490 89
2006-11-23 10:23 51°21.51 2°57.442 13.9 308 13.1 98490 89
2006-11-23 10:24 51°21.522 2°57.377 14.4 309 13.1 98470 89
2006-11-23 10:25 51°21.484 2°57.328 15.6 353 13.1 98490 89
2006-11-23 10:26 51°21.487 2°57.335 17.5 13 13.1 98460 89
2006-11-23 10:27 51°21.492 2°57.343 14.5 24 13.1 98460 88
2006-11-23 10:28 51°21.495 2°57.353 13.7 32 13.1 98470 87
2006-11-23 10:29 51°21.495 2°57.369 15.2 22 13.1 98480 87
2006-11-23 10:30 51°21.493 2°57.387 15.4 15 13 98470 86
2006-11-23 10:31 51°21.49 2°57.406 12.7 18 13.1 98460 85
2006-11-23 10:32 51°21.488 2°57.426 14.6 13 13.1 98460 85
2006-11-23 10:33 51°21.486 2°57.447 13.3 22 13.1 98450 86
2006-11-23 10:34 51°21.475 2°57.476 13.9 10 13.1 98480 87
2006-11-23 10:35 51°21.473 2°57.495 14.2 18 13 98470 88
2006-11-23 10:36 51°21.477 2°57.515 15.1 23 13 98470 88
2006-11-23 10:37 51°21.44 2°57.559 15.2 355 13 98480 88
2006-11-23 10:38 51°21.373 2°57.491 14.9 307 13 98480 88
2006-11-23 10:39 51°21.435 2°57.416 10.8 306 13 98500 88
2006-11-23 10:40 51°21.497 2°57.418 14.9 306 13 98540 88
2006-11-23 10:41 51°21.498 2°57.44 9.3 305 13 98520 88
2006-11-23 10:42 51°21.513 2°57.445 17.1 306 13 98540 88
2006-11-23 10:43 51°21.518 2°57.352 14.9 331 13 98480 88
2006-11-23 10:44 51°21.465 2°57.341 13.1 6 12.9 98480 88
2006-11-23 10:45 51°21.465 2°57.364 14.1 17 13 98490 87
2006-11-23 10:46 51°21.468 2°57.387 13.8 26 13 98500 87
2006-11-23 10:47 51°21.469 2°57.413 11.8 25 12.9 98500 87
2006-11-23 10:48 51°21.47 2°57.438 12.3 23 12.9 98490 86
2006-11-23 10:49 51°21.472 2°57.464 15.1 18 12.9 98490 86
2006-11-23 10:50 51°21.474 2°57.492 16 22 12.9 98490 85
2006-11-23 10:51 51°21.476 2°57.522 14.5 19 13 98490 84
2006-11-23 10:52 51°21.477 2°57.551 12 22 13 98490 84
2006-11-23 10:53 51°21.478 2°57.58 13.5 19 13 98490 84
2006-11-23 10:54 51°21.478 2°57.612 14.8 20 12.9 98500 84
2006-11-23 10:55 51°21.455 2°57.649 16.4 356 13 98490 84
2006-11-23 10:56 51°21.408 2°57.645 14.2 329 13 98500 83
2006-11-23 10:57 51°21.399 2°57.592 13.8 304 13 98470 83
2006-11-23 10:58 51°21.447 2°57.548 15.1 303 13 98500 82
2006-11-23 10:59 51°21.471 2°57.478 14.2 307 13 98470 82
2006-11-23 11:00 51°21.446 2°57.439 14 347 13 98490 82
2006-11-23 11:01 51°21.433 2°57.462 13 2 13.1 98480 82
2006-11-23 11:02 51°21.438 2°57.489 14 13 13.1 98470 82
2006-11-23 11:03 51°21.444 2°57.519 13.1 23 13 98470 82
2006-11-23 11:04 51°21.448 2°57.552 12.2 19 13 98480 81
2006-11-23 11:05 51°21.421 2°57.598 13 353 13 98460 81
2006-11-23 11:06 51°21.371 2°57.567 14.9 308 13 98490 81
2006-11-23 11:07 51°21.418 2°57.511 10.3 306 13 98480 81
2006-11-23 11:08 51°21.488 2°57.461 16.3 307 13 98500 81
2006-11-23 11:09 51°21.476 2°57.401 13.2 336 13 98480 81
2006-11-23 11:10 51°21.475 2°57.427 11.6 342 13 98500 81
2006-11-23 11:11 51°21.467 2°57.457 13.1 350 13 98490 80
2006-11-23 11:12 51°21.462 2°57.491 11.6 1 13.1 98470 79
2006-11-23 11:13 51°21.454 2°57.53 10.5 2 13.1 98470 79
2006-11-23 11:14 51°21.444 2°57.571 11.8 2 13 98480 80
2006-11-23 11:15 51°21.436 2°57.613 12.9 14 13 98480 80
2006-11-23 11:16 51°21.42 2°57.694 12.5 39 13 98480 80
2006-11-23 11:17 51°21.454 2°57.788 10.1 54 13 98520 79
2006-11-23 11:18 51°21.508 2°57.794 15.4 306 13 98530 79
2006-11-23 11:19 51°21.534 2°57.756 15 303 13 98480 78
2006-11-23 11:20 51°21.532 2°57.726 12.5 330 13.1 98460 78
2006-11-23 11:21 51°21.51 2°57.624 16.5 305 13.1 98480 78
2006-11-23 11:22 51°21.487 2°57.478 14.4 309 13.1 98470 78
2006-11-23 11:23 51°21.466 2°57.446 10.7 340 13.1 98510 78
2006-11-23 11:24 51°21.467 2°57.485 15.9 354 13.1 98500 78
2006-11-23 11:25 51°21.432 2°57.499 13.8 334 13.1 98480 77
2006-11-23 11:26 51°21.422 2°57.498 12.3 303 13.1 98490 77
2006-11-23 11:27 51°21.434 2°57.516 12.7 301 13.2 98480 77
2006-11-23 11:28 51°21.445 2°57.518 14.4 303 13.1 98470 77
2006-11-23 11:29 51°21.46 2°57.535 14.4 305 13.1 98490 77
2006-11-23 11:30 51°21.471 2°57.549 13.4 305 13.2 98470 77
2006-11-23 11:31 51°21.487 2°57.574 14.3 306 13.2 98490 77
2006-11-23 11:32 51°21.484 2°57.529 15.2 330 13.2 98480 77
2006-11-23 11:33 51°21.47 2°57.447 13.2 308 13.1 98500 78
2006-11-23 11:34 51°21.483 2°57.434 13.2 304 13.1 98510 78
2006-11-23 11:35 51°21.497 2°57.434 14.8 305 13.1 98470 79
2006-11-23 11:36 51°21.511 2°57.449 14 303 13.1 98490 79
2006-11-23 11:37 51°21.521 2°57.453 11.6 306 13.1 98520 79
2006-11-23 11:38 51°21.524 2°57.467 10.6 333 13.1 98520 79
2006-11-23 11:39 51°21.519 2°57.495 12.1 339 13.1 98530 80
2006-11-23 11:40 51°21.501 2°57.523 12.9 343 13 98530 81
2006-11-23 11:41 51°21.463 2°57.469 13.8 305 13 98540 81
2006-11-23 11:42 51°21.475 2°57.473 14.6 307 13 98520 81
2006-11-23 11:43 51°21.491 2°57.48 13.9 308 13 98530 82
2006-11-23 11:44 51°21.505 2°57.493 13.4 305 13 98530 81
2006-11-23 11:45 51°21.506 2°57.506 14.2 342 13 98550 80
2006-11-23 11:46 51°21.488 2°57.543 16.6 353 13.1 98530 78
2006-11-23 11:47 51°21.444 2°57.557 16.7 340 13.1 98530 77
2006-11-23 11:48 51°21.406 2°57.539 19.8 334 13.1 98540 75
2006-11-23 11:49 51°21.346 2°57.429 18.1 333 13.2 98540 74
2006-11-23 11:50 51°21.267 2°57.296 18.6 334 13.2 98530 73
2006-11-23 11:51 51°21.194 2°57.161 16.9 332 13.2 98550 73
2006-11-23 11:52 51°21.119 2°57.019 19.4 335 13.1 98550 73
2006-11-23 11:53 51°21.046 2°56.883 19.5 335 13.2 98560 72
2006-11-23 11:54 51°20.975 2°56.745 18.1 334 13.2 98550 71
2006-11-23 11:55 51°20.902 2°56.604 19.5 334 13.2 98540 71
2006-11-23 11:56 51°20.829 2°56.457 18.5 338 13.2 98540 70
2006-11-23 11:57 51°20.756 2°56.326 17 334 13.2 98570 69
2006-11-23 11:58 51°20.686 2°56.193 20.8 334 13.3 98560 70
2006-11-23 11:59 51°20.609 2°56.048 17.1 335 13.2 98550 68
2006-11-23 12:00 51°20.529 2°55.899 19.6 335 13.2 98540 69
2006-11-23 12:01 51°20.449 2°55.75 16.4 334 13.2 98550 67
2006-11-23 12:02 51°20.382 2°55.635 15.7 334 13.2 98570 68
2006-11-23 12:03 51°20.311 2°55.504 17.9 334 13.2 98570 70
2006-11-23 12:04 51°20.223 2°55.326 17.6 335 13.1 98560 69
2006-11-23 12:05 51°20.134 2°55.157 20.1 333 13.2 98560 69
2006-11-23 12:06 51°20.04 2°54.996 19.1 337 13.2 98530 69
2006-11-23 12:07 51°19.939 2°54.829 15.9 335 13.1 98530 70
2006-11-23 12:08 51°19.843 2°54.663 19 336 13 98510 68
2006-11-23 12:09 51°19.75 2°54.499 16.7 334 13 98540 67
2006-11-23 12:10 51°19.672 2°54.375 16.2 337 12.7 98580 72
2006-11-23 12:11 51°19.59 2°54.247 16.1 335 12 98540 78
2006-11-23 12:12 51°19.5 2°54.126 16.4 336 11.9 98550 80
2006-11-23 12:13 51°19.409 2°54.007 15.7 337 11.9 98550 80
2006-11-23 12:14 51°19.328 2°53.893 17.8 338 12.2 98570 79
2006-11-23 12:15 51°19.252 2°53.772 19.5 336 12.3 98570 76
2006-11-23 12:16 51°19.174 2°53.651 16.8 338 12.4 98540 73
2006-11-23 12:17 51°19.115 2°53.555 16.6 340 12.6 98560 71
2006-11-23 12:18 51°19.067 2°53.496 16.7 339 12.7 98560 69
2006-11-23 12:19 51°19.019 2°53.427 16.6 342 12.8 98560 68
2006-11-23 12:20 51°18.972 2°53.361 15.7 341 12.9 98550 68
2006-11-23 12:21 51°18.927 2°53.302 13.6 340 12.9 98560 67
2006-11-23 12:22 51°18.888 2°53.257 13.6 338 13 98570 68
2006-11-23 12:23 51°18.844 2°53.19 14.7 337 12.9 98570 69
2006-11-23 12:24 51°18.798 2°53.131 15.6 339 12.9 98570 70
2006-11-23 12:25 51°18.756 2°53.069 15.7 337 12.9 98570 70
2006-11-23 12:26 51°18.689 2°52.982 13.9 340 13 98580 70
2006-11-23 12:27 51°18.6 2°52.893 14.7 341 12.9 98550 70
2006-11-23 12:28 51°18.487 2°52.79 16 345 13 98590 71
2006-11-23 12:29 51°18.364 2°52.701 15.2 346 13 98560 71
2006-11-23 12:30 51°18.225 2°52.639 16 347 13 98580 72
2006-11-23 12:31 51°18.083 2°52.606 16.2 350 12.9 98580 72
2006-11-23 12:32 51°17.944 2°52.569 14.7 351 13 98570 72
2006-11-23 12:33 51°17.808 2°52.534 17.1 353 13 98560 72
2006-11-23 12:34 51°17.663 2°52.51 14.5 356 13 98590 72
2006-11-23 12:35 51°17.518 2°52.495 14.4 351 13 98580 72
2006-11-23 12:36 51°17.367 2°52.495 15.4 357 13 98590 72
2006-11-23 12:37 51°17.208 2°52.541 14 355 13 98590 73
2006-11-23 12:38 51°17.048 2°52.599 12.4 351 13 98580 75
2006-11-23 12:39 51°16.893 2°52.667 11.6 349 12.9 98580 75
2006-11-23 12:40 51°16.734 2°52.736 13 350 12.9 98580 76
2006-11-23 12:41 51°16.573 2°52.821 13.5 354 12.8 98580 76
2006-11-23 12:42 51°16.418 2°52.917 11.8 356 12.8 98600 77
2006-11-23 12:43 51°16.259 2°53.014 12.8 356 12.8 98600 77
2006-11-23 12:44 51°16.101 2°53.107 12.7 354 12.8 98590 78
2006-11-23 12:45 51°15.945 2°53.2 13 354 12.8 98600 78
2006-11-23 12:46 51°15.787 2°53.298 12.9 355 12.8 98590 78
2006-11-23 12:47 51°15.631 2°53.413 11.9 355 12.7 98590 78
2006-11-23 12:48 51°15.476 2°53.527 12.6 355 12.7 98600 78
2006-11-23 12:49 51°15.324 2°53.64 11.9 357 12.7 98590 78
2006-11-23 12:50 51°15.173 2°53.765 10.7 3 12.7 98600 78
2006-11-23 12:51 51°15.038 2°53.987 10 2 12.7 98610 79
2006-11-23 12:52 51°14.9 2°54.239 9 3 12.7 98620 78
2006-11-23 12:53 51°14.752 2°54.479 11 356 12.7 98620 79
2006-11-23 12:54 51°14.595 2°54.688 12 359 12.6 98610 79
2006-11-23 12:55 51°14.439 2°54.914 11.7 5 12.6 98610 79
2006-11-23 12:56 51°14.307 2°55.178 7.7 2 12.5 98620 79
2006-11-23 12:57 51°14.201 2°55.354 5.5 3 12.5 98630 80
2006-11-23 12:58 51°14.111 2°55.425 6.8 352 12.5 98640 79
2006-11-23 12:59 51°14.037 2°55.478 6.7 4 12.5 98640 79
2006-11-23 13:00 51°13.962 2°55.532 6.1 1 12.6 98640 77
2006-11-23 13:01 51°13.868 2°55.6 3.8 342 12.7 98640 76
2006-11-23 13:02 51°13.781 2°55.69 3.9 2 12.8 98640 76
2006-11-23 13:03 51°13.724 2°55.804 5.3 354 12.8 98650 75
2006-11-23 13:04 51°13.653 2°55.952 2.7 354 12.9 98640 74
2006-11-23 13:05 51°13.619 2°56.016 2.8 37 12.9 98650 75
2006-11-23 13:06 51°13.605 2°56.067 3.3 1 12.9 98640 75
2006-11-23 13:07 51°13.598 2°56.088 3 34 12.8 98640 75
2006-11-23 13:08 51°13.6 2°56.088 4.1 28 12.8 98640 75
2006-11-23 13:09 51°13.6 2°56.087 2 19 12.8 98640 75
2006-11-23 13:10 51°13.596 2°56.09 4.2 22 12.8 98640 75
2006-11-23 13:11 51°13.599 2°56.089 3.5 34 12.8 98640 75
2006-11-23 13:12 51°13.598 2°56.093 3.7 22 12.8 98640 74